Location: Castle Hill Houses
(40.8186°N, 73.8497°W)
Time: 19:17:22
(UTC+00:00)

Cosmos 2239 Rocket - Pass Details

Date: 26 January 2020
Orbit: 954 x 992 km, 82.9° (Epoch: 16 February)

Event Time Altitude Azimuth Distance (km) Brightness Sun altitude
Rises 00:05:55 0° 182° (S) 3,684 7.6 -23.0°
Reaches altitude 10° 00:08:25 10° 182° (S) 2,742 6.9 -23.5°
Maximum altitude 00:14:43 82° 95° (E) 1,006 4.4 -24.7°
Drops below altitude 10° 00:21:04 10° 9° (N) 2,761 6.7 -25.9°
Sets 00:23:36 0° 9° (N) 3,711 7.4 -26.4°
